Year,Month,Day,Hour,Minute,Value (Times are PST for temperature in C)
2014,08,11,00,00,20.70
2014,08,11,00,01,20.70
2014,08,11,00,02,20.70
2014,08,11,00,03,20.70
2014,08,11,00,04,20.60
2014,08,11,00,05,20.60
2014,08,11,00,06,20.60
2014,08,11,00,07,20.60
2014,08,11,00,08,20.60
2014,08,11,00,09,20.60
2014,08,11,00,10,20.50
2014,08,11,00,11,20.50
2014,08,11,00,12,20.50
2014,08,11,00,13,20.40
2014,08,11,00,14,20.40
2014,08,11,00,15,20.40
2014,08,11,00,16,20.30
2014,08,11,00,17,20.30
2014,08,11,00,18,20.30
2014,08,11,00,19,20.30
2014,08,11,00,20,20.30
2014,08,11,00,21,20.20
2014,08,11,00,22,20.20
2014,08,11,00,23,20.20
2014,08,11,00,24,20.20
2014,08,11,00,25,20.20
2014,08,11,00,26,20.20
2014,08,11,00,27,20.20
2014,08,11,00,28,20.20
2014,08,11,00,29,20.10
2014,08,11,00,30,20.20
2014,08,11,00,31,20.10
2014,08,11,00,32,20.10
2014,08,11,00,33,20.10
2014,08,11,00,34,20.10
2014,08,11,00,35,20.10
2014,08,11,00,36,20.10
2014,08,11,00,37,20.10
2014,08,11,00,38,20.10
2014,08,11,00,39,20.10
2014,08,11,00,40,20.10
2014,08,11,00,41,20.10
2014,08,11,00,42,20.10
2014,08,11,00,43,20.20
2014,08,11,00,44,20.20
2014,08,11,00,45,20.20
2014,08,11,00,46,20.20
2014,08,11,00,47,20.20
2014,08,11,00,48,20.20
2014,08,11,00,49,20.30
2014,08,11,00,50,20.30
2014,08,11,00,51,20.30
2014,08,11,00,52,20.30
2014,08,11,00,53,20.30
2014,08,11,00,54,20.30
2014,08,11,00,55,20.30
2014,08,11,00,56,20.20
2014,08,11,00,57,20.20
2014,08,11,00,58,20.20
2014,08,11,00,59,20.20
2014,08,11,01,00,20.20
2014,08,11,01,01,20.20
2014,08,11,01,02,20.20
2014,08,11,01,03,20.10
2014,08,11,01,04,20.10
2014,08,11,01,05,20.10
2014,08,11,01,06,20.10
2014,08,11,01,07,20.00
2014,08,11,01,08,20.00
2014,08,11,01,09,19.90
2014,08,11,01,10,19.90
2014,08,11,01,11,19.90
2014,08,11,01,12,19.90
2014,08,11,01,13,19.90
2014,08,11,01,14,19.90
2014,08,11,01,15,19.90
2014,08,11,01,16,19.90
2014,08,11,01,17,19.90
2014,08,11,01,18,19.90
2014,08,11,01,19,19.80
2014,08,11,01,20,19.80
2014,08,11,01,21,19.80
2014,08,11,01,22,19.70
2014,08,11,01,23,19.70
2014,08,11,01,24,19.70
2014,08,11,01,25,19.70
2014,08,11,01,26,19.70
2014,08,11,01,27,19.70
2014,08,11,01,28,19.70
2014,08,11,01,29,19.70
2014,08,11,01,30,19.60
2014,08,11,01,31,19.60
2014,08,11,01,32,19.60
2014,08,11,01,33,19.60
2014,08,11,01,34,19.50
2014,08,11,01,35,19.50
2014,08,11,01,36,19.50
2014,08,11,01,37,19.40
2014,08,11,01,38,19.40
2014,08,11,01,39,19.40
2014,08,11,01,40,19.40
2014,08,11,01,41,19.40
2014,08,11,01,42,19.50
2014,08,11,01,43,19.60
2014,08,11,01,44,19.80
2014,08,11,01,45,20.00
2014,08,11,01,46,20.10
2014,08,11,01,47,20.10
2014,08,11,01,48,20.10
2014,08,11,01,49,20.10
2014,08,11,01,50,20.10
2014,08,11,01,51,20.10
2014,08,11,01,52,20.10
2014,08,11,01,53,20.00
2014,08,11,01,54,20.00
2014,08,11,01,55,20.00
2014,08,11,01,56,20.00
2014,08,11,01,57,20.00
2014,08,11,01,58,20.10
2014,08,11,01,59,20.10
2014,08,11,02,00,20.10
2014,08,11,02,01,20.00
2014,08,11,02,02,20.00
2014,08,11,02,03,19.90
2014,08,11,02,04,19.90
2014,08,11,02,05,19.90
2014,08,11,02,06,20.00
2014,08,11,02,07,20.00
2014,08,11,02,08,19.90
2014,08,11,02,09,19.90
2014,08,11,02,10,19.90
2014,08,11,02,11,19.80
2014,08,11,02,12,19.80
2014,08,11,02,13,19.70
2014,08,11,02,14,19.80
2014,08,11,02,15,19.80
2014,08,11,02,16,19.90
2014,08,11,02,17,19.90
2014,08,11,02,18,19.90
2014,08,11,02,19,19.90
2014,08,11,02,20,19.90
2014,08,11,02,21,19.90
2014,08,11,02,22,19.90
2014,08,11,02,23,19.90
2014,08,11,02,24,19.90
2014,08,11,02,25,20.00
2014,08,11,02,26,20.00
2014,08,11,02,27,20.00
2014,08,11,02,28,20.00
2014,08,11,02,29,19.90
2014,08,11,02,30,19.90
2014,08,11,02,31,19.80
2014,08,11,02,32,19.80
2014,08,11,02,33,19.70
2014,08,11,02,34,19.60
2014,08,11,02,35,19.60
2014,08,11,02,36,19.50
2014,08,11,02,37,19.40
2014,08,11,02,38,19.30
2014,08,11,02,39,19.30
2014,08,11,02,40,19.30
2014,08,11,02,41,19.20
2014,08,11,02,42,19.20
2014,08,11,02,43,19.20
2014,08,11,02,44,19.20
2014,08,11,02,45,19.20
2014,08,11,02,46,19.30
2014,08,11,02,47,19.20
2014,08,11,02,48,19.20
2014,08,11,02,49,19.20
2014,08,11,02,50,19.20
2014,08,11,02,51,19.20
2014,08,11,02,52,19.20
2014,08,11,02,53,19.10
2014,08,11,02,54,19.10
2014,08,11,02,55,19.00
2014,08,11,02,56,19.00
2014,08,11,02,57,19.00
2014,08,11,02,58,19.00
2014,08,11,02,59,19.00
2014,08,11,03,00,19.00
2014,08,11,03,01,19.00
2014,08,11,03,02,18.90
2014,08,11,03,03,18.90
2014,08,11,03,04,18.90
2014,08,11,03,05,18.90
2014,08,11,03,06,18.90
2014,08,11,03,07,18.90
2014,08,11,03,08,18.90
2014,08,11,03,09,18.90
2014,08,11,03,10,18.90
2014,08,11,03,11,18.80
2014,08,11,03,12,18.80
2014,08,11,03,13,18.80
2014,08,11,03,14,18.70
2014,08,11,03,15,18.70
2014,08,11,03,16,18.70
2014,08,11,03,17,18.60
2014,08,11,03,18,18.60
2014,08,11,03,19,18.60
2014,08,11,03,20,18.60
2014,08,11,03,21,18.50
2014,08,11,03,22,18.50
2014,08,11,03,23,18.40
2014,08,11,03,24,18.40
2014,08,11,03,25,18.40
2014,08,11,03,26,18.30
2014,08,11,03,27,18.30
2014,08,11,03,28,18.20
2014,08,11,03,29,18.20
2014,08,11,03,30,18.10
2014,08,11,03,31,18.10
2014,08,11,03,32,18.10
2014,08,11,03,33,18.00
2014,08,11,03,34,18.00
2014,08,11,03,35,18.00
2014,08,11,03,36,17.90
2014,08,11,03,37,17.80
2014,08,11,03,38,17.80
2014,08,11,03,39,17.80
2014,08,11,03,40,17.70
2014,08,11,03,41,17.70
2014,08,11,03,42,17.70
2014,08,11,03,43,17.60
2014,08,11,03,44,17.60
2014,08,11,03,45,17.60
2014,08,11,03,46,17.60
2014,08,11,03,47,17.60
2014,08,11,03,48,17.60
2014,08,11,03,49,17.50
2014,08,11,03,50,17.50
2014,08,11,03,51,17.40
2014,08,11,03,52,17.40
2014,08,11,03,53,17.40
2014,08,11,03,54,17.40
2014,08,11,03,55,17.30
2014,08,11,03,56,17.30
2014,08,11,03,57,17.30
2014,08,11,03,58,17.30
2014,08,11,03,59,17.20
2014,08,11,04,00,17.20
2014,08,11,04,01,17.20
2014,08,11,04,02,17.20
2014,08,11,04,03,17.20
2014,08,11,04,04,17.10
2014,08,11,04,05,17.10
2014,08,11,04,06,17.10
2014,08,11,04,07,17.00
2014,08,11,04,08,17.00
2014,08,11,04,09,17.00
2014,08,11,04,10,17.00
2014,08,11,04,11,17.00
2014,08,11,04,12,17.00
2014,08,11,04,13,17.00
2014,08,11,04,14,17.10
2014,08,11,04,15,17.10
2014,08,11,04,16,17.10
2014,08,11,04,17,17.10
2014,08,11,04,18,17.10
2014,08,11,04,19,17.10
2014,08,11,04,20,17.10
2014,08,11,04,21,17.10
2014,08,11,04,22,17.10
2014,08,11,04,23,17.10
2014,08,11,04,24,17.10
2014,08,11,04,25,17.10
2014,08,11,04,26,17.10
2014,08,11,04,27,17.10
2014,08,11,04,28,17.10
2014,08,11,04,29,17.10
2014,08,11,04,30,17.10
2014,08,11,04,31,17.10
2014,08,11,04,32,17.10
2014,08,11,04,33,17.10
2014,08,11,04,34,17.10
2014,08,11,04,35,17.10
2014,08,11,04,36,17.10
2014,08,11,04,37,17.10
2014,08,11,04,38,17.20
2014,08,11,04,39,17.20
2014,08,11,04,40,17.20
2014,08,11,04,41,17.20
2014,08,11,04,42,17.20
2014,08,11,04,43,17.20
2014,08,11,04,44,17.20
2014,08,11,04,45,17.20
2014,08,11,04,46,17.20
2014,08,11,04,47,17.20
2014,08,11,04,48,17.20
2014,08,11,04,49,17.20
2014,08,11,04,50,17.20
2014,08,11,04,51,17.20
2014,08,11,04,52,17.20
2014,08,11,04,53,17.20
2014,08,11,04,54,17.20
2014,08,11,04,55,17.10
2014,08,11,04,56,17.10
2014,08,11,04,57,17.10
2014,08,11,04,58,17.10
2014,08,11,04,59,17.10
2014,08,11,05,00,17.10
2014,08,11,05,01,17.10
2014,08,11,05,02,17.10
2014,08,11,05,03,17.10
2014,08,11,05,04,17.10
2014,08,11,05,05,17.00
2014,08,11,05,06,17.00
2014,08,11,05,07,16.90
2014,08,11,05,08,16.90
2014,08,11,05,09,16.90
2014,08,11,05,10,16.80
2014,08,11,05,11,16.80
2014,08,11,05,12,16.80
2014,08,11,05,13,16.70
2014,08,11,05,14,16.70
2014,08,11,05,15,16.70
2014,08,11,05,16,16.60
2014,08,11,05,17,16.60
2014,08,11,05,18,16.60
2014,08,11,05,19,16.50
2014,08,11,05,20,16.50
2014,08,11,05,21,16.40
2014,08,11,05,22,16.40
2014,08,11,05,23,16.40
2014,08,11,05,24,16.40
2014,08,11,05,25,16.40
2014,08,11,05,26,16.40
2014,08,11,05,27,16.40
2014,08,11,05,28,16.30
2014,08,11,05,29,16.30
2014,08,11,05,30,16.30
2014,08,11,05,31,16.30
2014,08,11,05,32,16.30
2014,08,11,05,33,16.30
2014,08,11,05,34,16.20
2014,08,11,05,35,16.20
2014,08,11,05,36,16.20
2014,08,11,05,37,16.20
2014,08,11,05,38,16.20
2014,08,11,05,39,16.20
2014,08,11,05,40,16.20
2014,08,11,05,41,16.10
2014,08,11,05,42,16.10
2014,08,11,05,43,16.10
2014,08,11,05,44,16.10
2014,08,11,05,45,16.10
2014,08,11,05,46,16.10
2014,08,11,05,47,16.00
2014,08,11,05,48,16.10
2014,08,11,05,49,16.00
2014,08,11,05,50,16.00
2014,08,11,05,51,16.00
2014,08,11,05,52,16.00
2014,08,11,05,53,16.00
2014,08,11,05,54,16.00
2014,08,11,05,55,16.00
2014,08,11,05,56,16.00
2014,08,11,05,57,15.90
2014,08,11,05,58,15.90
2014,08,11,05,59,15.90
2014,08,11,06,00,15.90
2014,08,11,06,01,15.90
2014,08,11,06,02,15.90
2014,08,11,06,03,15.90
2014,08,11,06,04,15.90
2014,08,11,06,05,15.90
2014,08,11,06,06,15.80
2014,08,11,06,07,15.80
2014,08,11,06,08,15.80
2014,08,11,06,09,15.80
2014,08,11,06,10,15.80
2014,08,11,06,11,15.80
2014,08,11,06,12,15.80
2014,08,11,06,13,15.70
2014,08,11,06,14,15.70
2014,08,11,06,15,15.70
2014,08,11,06,16,15.70
2014,08,11,06,17,15.70
2014,08,11,06,18,15.70
2014,08,11,06,19,15.60
2014,08,11,06,20,15.60
2014,08,11,06,21,15.60
2014,08,11,06,22,15.60
2014,08,11,06,23,15.60
2014,08,11,06,24,15.60
2014,08,11,06,25,15.60
2014,08,11,06,26,15.60
2014,08,11,06,27,15.50
2014,08,11,06,28,15.50
2014,08,11,06,29,15.50
2014,08,11,06,30,15.50
2014,08,11,06,31,15.50
2014,08,11,06,32,15.50
2014,08,11,06,33,15.60
2014,08,11,06,34,15.60
2014,08,11,06,35,15.60
2014,08,11,06,36,15.60
2014,08,11,06,37,15.60
2014,08,11,06,38,15.60
2014,08,11,06,39,15.60
2014,08,11,06,40,15.60
2014,08,11,06,41,15.60
2014,08,11,06,42,15.70
2014,08,11,06,43,15.70
2014,08,11,06,44,15.70
2014,08,11,06,45,15.70
2014,08,11,06,46,15.80
2014,08,11,06,47,15.80
2014,08,11,06,48,15.80
2014,08,11,06,49,15.90
2014,08,11,06,50,15.90
2014,08,11,06,51,15.90
2014,08,11,06,52,15.90
2014,08,11,06,53,15.90
2014,08,11,06,54,16.00
2014,08,11,06,55,16.00
2014,08,11,06,56,16.00
2014,08,11,06,57,16.10
2014,08,11,06,58,16.10
2014,08,11,06,59,16.20
2014,08,11,07,00,16.20
2014,08,11,07,01,16.30
2014,08,11,07,02,16.40
2014,08,11,07,03,16.40
2014,08,11,07,04,16.40
2014,08,11,07,05,16.50
2014,08,11,07,06,16.50
2014,08,11,07,07,16.50
2014,08,11,07,08,16.60
2014,08,11,07,09,16.60
2014,08,11,07,10,16.60
2014,08,11,07,11,16.70
2014,08,11,07,12,16.70
2014,08,11,07,13,16.80
2014,08,11,07,14,16.80
2014,08,11,07,15,16.90
2014,08,11,07,16,16.90
2014,08,11,07,17,17.00
2014,08,11,07,18,17.00
2014,08,11,07,19,17.10
2014,08,11,07,20,17.20
2014,08,11,07,21,17.30
2014,08,11,07,22,17.30
2014,08,11,07,23,17.40
2014,08,11,07,24,17.40
2014,08,11,07,25,17.50
2014,08,11,07,26,17.50
2014,08,11,07,27,17.50
2014,08,11,07,28,17.50
2014,08,11,07,29,17.60
2014,08,11,07,30,17.60
2014,08,11,07,31,17.60
2014,08,11,07,32,17.70
2014,08,11,07,33,17.70
2014,08,11,07,34,17.70
2014,08,11,07,35,17.80
2014,08,11,07,36,17.80
2014,08,11,07,37,17.80
2014,08,11,07,38,17.80
2014,08,11,07,39,17.80
2014,08,11,07,40,17.80
2014,08,11,07,41,17.80
2014,08,11,07,42,17.80
2014,08,11,07,43,17.80
2014,08,11,07,44,17.80
2014,08,11,07,45,17.90
2014,08,11,07,46,17.90
2014,08,11,07,47,17.90
2014,08,11,07,48,17.90
2014,08,11,07,49,18.00
2014,08,11,07,50,18.10
2014,08,11,07,51,18.10
2014,08,11,07,52,18.20
2014,08,11,07,53,18.20
2014,08,11,07,54,18.30
2014,08,11,07,55,18.30
2014,08,11,07,56,18.40
2014,08,11,07,57,18.40
2014,08,11,07,58,18.50
2014,08,11,07,59,18.60
2014,08,11,08,00,18.60
2014,08,11,08,01,18.70
2014,08,11,08,02,18.70
2014,08,11,08,03,18.80
2014,08,11,08,04,18.80
2014,08,11,08,05,18.90
2014,08,11,08,06,18.90
2014,08,11,08,07,18.90
2014,08,11,08,08,19.00
2014,08,11,08,09,19.00
2014,08,11,08,10,19.10
2014,08,11,08,11,19.20
2014,08,11,08,12,19.20
2014,08,11,08,13,19.30
2014,08,11,08,14,19.40
2014,08,11,08,15,19.50
2014,08,11,08,16,19.60
2014,08,11,08,17,19.70
2014,08,11,08,18,19.80
2014,08,11,08,19,19.90
2014,08,11,08,20,20.00
2014,08,11,08,21,20.10
2014,08,11,08,22,20.30
2014,08,11,08,23,20.40
2014,08,11,08,24,20.60
2014,08,11,08,25,20.70
2014,08,11,08,26,20.70
2014,08,11,08,27,20.80
2014,08,11,08,28,20.80
2014,08,11,08,29,20.90
2014,08,11,08,30,20.90
2014,08,11,08,31,21.00
2014,08,11,08,32,21.10
2014,08,11,08,33,21.20
2014,08,11,08,34,21.20
2014,08,11,08,35,21.30
2014,08,11,08,36,21.30
2014,08,11,08,37,21.30
2014,08,11,08,38,21.40
2014,08,11,08,39,21.40
2014,08,11,08,40,21.40
2014,08,11,08,41,21.50
2014,08,11,08,42,21.60
2014,08,11,08,43,21.60
2014,08,11,08,44,21.60
2014,08,11,08,45,21.60
2014,08,11,08,46,21.60
2014,08,11,08,47,21.60
2014,08,11,08,48,21.60
2014,08,11,08,49,21.60
2014,08,11,08,50,21.60
2014,08,11,08,51,21.60
2014,08,11,08,52,21.60
2014,08,11,08,53,21.60
2014,08,11,08,54,21.60
2014,08,11,08,55,21.60
2014,08,11,08,56,21.60
2014,08,11,08,57,21.70
2014,08,11,08,58,21.70
2014,08,11,08,59,21.70
2014,08,11,09,00,21.70
2014,08,11,09,01,21.80
2014,08,11,09,02,21.80
2014,08,11,09,03,21.80
2014,08,11,09,04,21.80
2014,08,11,09,05,21.90
2014,08,11,09,06,21.90
2014,08,11,09,07,22.00
2014,08,11,09,08,22.00
2014,08,11,09,09,22.10
2014,08,11,09,10,22.10
2014,08,11,09,11,22.20
2014,08,11,09,12,22.30
2014,08,11,09,13,22.30
2014,08,11,09,14,22.40
2014,08,11,09,15,22.40
2014,08,11,09,16,22.50
2014,08,11,09,17,22.70
2014,08,11,09,18,22.80
2014,08,11,09,19,22.90
2014,08,11,09,20,23.00
2014,08,11,09,21,23.10
2014,08,11,09,22,23.20
2014,08,11,09,23,23.30
2014,08,11,09,24,23.30
2014,08,11,09,25,23.40
2014,08,11,09,26,23.50
2014,08,11,09,27,23.50
2014,08,11,09,28,23.50
2014,08,11,09,29,23.60
2014,08,11,09,30,23.60
2014,08,11,09,31,23.60
2014,08,11,09,32,23.60
2014,08,11,09,33,23.60
2014,08,11,09,34,23.60
2014,08,11,09,35,23.60
2014,08,11,09,36,23.50
2014,08,11,09,37,23.50
2014,08,11,09,38,23.50
2014,08,11,09,39,23.40
2014,08,11,09,40,23.40
2014,08,11,09,41,23.40
2014,08,11,09,42,23.40
2014,08,11,09,43,23.30
2014,08,11,09,44,23.40
2014,08,11,09,45,23.40
2014,08,11,09,46,23.40
2014,08,11,09,47,23.40
2014,08,11,09,48,23.40
2014,08,11,09,49,23.40
2014,08,11,09,50,23.40
2014,08,11,09,51,23.30
2014,08,11,09,52,23.30
2014,08,11,09,53,23.30
2014,08,11,09,54,23.30
2014,08,11,09,55,23.30
2014,08,11,09,56,23.30
2014,08,11,09,57,23.20
2014,08,11,09,58,23.20
2014,08,11,09,59,23.20
2014,08,11,10,00,23.20
2014,08,11,10,01,23.20
2014,08,11,10,02,23.30
2014,08,11,10,03,23.30
2014,08,11,10,04,23.40
2014,08,11,10,05,23.40
2014,08,11,10,06,23.50
2014,08,11,10,07,23.50
2014,08,11,10,08,23.50
2014,08,11,10,09,23.50
2014,08,11,10,10,23.60
2014,08,11,10,11,23.60
2014,08,11,10,12,23.50
2014,08,11,10,13,23.40
2014,08,11,10,14,23.40
2014,08,11,10,15,23.40
2014,08,11,10,16,23.40
2014,08,11,10,17,23.50
2014,08,11,10,18,23.60
2014,08,11,10,19,23.60
2014,08,11,10,20,23.70
2014,08,11,10,21,23.70
2014,08,11,10,22,23.80
2014,08,11,10,23,23.80
2014,08,11,10,24,23.80
2014,08,11,10,25,23.70
2014,08,11,10,26,23.60
2014,08,11,10,27,23.40
2014,08,11,10,28,23.30
2014,08,11,10,29,23.10
2014,08,11,10,30,23.10
2014,08,11,10,31,23.10
2014,08,11,10,32,23.10
2014,08,11,10,33,23.20
2014,08,11,10,34,23.20
2014,08,11,10,35,23.20
2014,08,11,10,36,23.20
2014,08,11,10,37,23.20
2014,08,11,10,38,23.30
2014,08,11,10,39,23.40
2014,08,11,10,40,23.40
2014,08,11,10,41,23.40
2014,08,11,10,42,23.40
2014,08,11,10,43,23.50
2014,08,11,10,44,23.50
2014,08,11,10,45,23.60
2014,08,11,10,46,23.60
2014,08,11,10,47,23.60
2014,08,11,10,48,23.60
2014,08,11,10,49,23.60
2014,08,11,10,50,23.60
2014,08,11,10,51,23.70
2014,08,11,10,52,23.70
2014,08,11,10,53,23.70
2014,08,11,10,54,23.60
2014,08,11,10,55,23.60
2014,08,11,10,56,23.70
2014,08,11,10,57,23.60
2014,08,11,10,58,23.60
2014,08,11,10,59,23.60
2014,08,11,11,00,23.60
2014,08,11,11,01,23.60
2014,08,11,11,02,23.60
2014,08,11,11,03,23.60
2014,08,11,11,04,23.60
2014,08,11,11,05,23.50
2014,08,11,11,06,23.40
2014,08,11,11,07,23.30
2014,08,11,11,08,23.10
2014,08,11,11,09,23.00
2014,08,11,11,10,22.90
2014,08,11,11,11,22.90
2014,08,11,11,12,22.90
2014,08,11,11,13,23.00
2014,08,11,11,14,23.00
2014,08,11,11,15,23.00
2014,08,11,11,16,23.00
2014,08,11,11,17,23.00
2014,08,11,11,18,23.10
2014,08,11,11,19,23.10
2014,08,11,11,20,23.10
2014,08,11,11,21,23.20
2014,08,11,11,22,23.20
2014,08,11,11,23,23.20
2014,08,11,11,24,23.20
2014,08,11,11,25,23.20
2014,08,11,11,26,23.20
2014,08,11,11,27,23.20
2014,08,11,11,28,23.20
2014,08,11,11,29,23.30
2014,08,11,11,30,23.30
2014,08,11,11,31,23.30
2014,08,11,11,32,23.40
2014,08,11,11,33,23.40
2014,08,11,11,34,23.50
2014,08,11,11,35,23.50
2014,08,11,11,36,23.60
2014,08,11,11,37,23.60
2014,08,11,11,38,23.50
2014,08,11,11,39,23.40
2014,08,11,11,40,23.40
2014,08,11,11,41,23.40
2014,08,11,11,42,23.30
2014,08,11,11,43,23.30
2014,08,11,11,44,23.30
2014,08,11,11,45,23.20
2014,08,11,11,46,23.20
2014,08,11,11,47,23.20
2014,08,11,11,48,23.30
2014,08,11,11,49,23.30
2014,08,11,11,50,23.30
2014,08,11,11,51,23.40
2014,08,11,11,52,23.40
2014,08,11,11,53,23.50
2014,08,11,11,54,23.50
2014,08,11,11,55,23.60
2014,08,11,11,56,23.60
2014,08,11,11,57,23.60
2014,08,11,11,58,23.60
2014,08,11,11,59,23.50
2014,08,11,12,00,23.50
2014,08,11,12,01,23.50
2014,08,11,12,02,23.40
2014,08,11,12,03,23.40
2014,08,11,12,04,23.40
2014,08,11,12,05,23.40
2014,08,11,12,06,23.40
2014,08,11,12,07,23.50
2014,08,11,12,08,23.50
2014,08,11,12,09,23.50
2014,08,11,12,10,23.60
2014,08,11,12,11,23.60
2014,08,11,12,12,23.70
2014,08,11,12,13,23.70
2014,08,11,12,14,23.60
2014,08,11,12,15,23.60
2014,08,11,12,16,23.60
2014,08,11,12,17,23.50
2014,08,11,12,18,23.40
2014,08,11,12,19,23.50
2014,08,11,12,20,23.50
2014,08,11,12,21,23.60
2014,08,11,12,22,23.70
2014,08,11,12,23,23.80
2014,08,11,12,24,23.80
2014,08,11,12,25,23.90
2014,08,11,12,26,24.00
2014,08,11,12,27,24.10
2014,08,11,12,28,24.20
2014,08,11,12,29,24.30
2014,08,11,12,30,24.30
2014,08,11,12,31,24.30
2014,08,11,12,32,24.40
2014,08,11,12,33,24.40
2014,08,11,12,34,24.40
2014,08,11,12,35,24.40
2014,08,11,12,36,24.40
2014,08,11,12,37,24.40
2014,08,11,12,38,24.50
2014,08,11,12,39,24.50
2014,08,11,12,40,24.60
2014,08,11,12,41,24.60
2014,08,11,12,42,24.60
2014,08,11,12,43,24.60
2014,08,11,12,44,24.70
2014,08,11,12,45,24.80
2014,08,11,12,46,24.80
2014,08,11,12,47,24.80
2014,08,11,12,48,24.80
2014,08,11,12,49,24.80
2014,08,11,12,50,24.80
2014,08,11,12,51,24.80
2014,08,11,12,52,24.80
2014,08,11,12,53,24.80
2014,08,11,12,54,24.80
2014,08,11,12,55,24.80
2014,08,11,12,56,24.80
2014,08,11,12,57,24.80
2014,08,11,12,58,24.90
2014,08,11,12,59,24.90
2014,08,11,13,00,25.00
2014,08,11,13,01,25.00
2014,08,11,13,02,25.00
2014,08,11,13,03,24.90
2014,08,11,13,04,24.90
2014,08,11,13,05,24.90
2014,08,11,13,06,24.90
2014,08,11,13,07,24.80
2014,08,11,13,08,24.80
2014,08,11,13,09,24.70
2014,08,11,13,10,24.70
2014,08,11,13,11,24.70
2014,08,11,13,12,24.70
2014,08,11,13,13,24.70
2014,08,11,13,14,24.70
2014,08,11,13,15,24.80
2014,08,11,13,16,24.80
2014,08,11,13,17,24.80
2014,08,11,13,18,24.90
2014,08,11,13,19,24.90
2014,08,11,13,20,25.00
2014,08,11,13,21,25.00
2014,08,11,13,22,25.00
2014,08,11,13,23,25.00
2014,08,11,13,24,25.10
2014,08,11,13,25,25.30
2014,08,11,13,26,25.40
2014,08,11,13,27,25.60
2014,08,11,13,28,25.70
2014,08,11,13,29,25.90
2014,08,11,13,30,25.90
2014,08,11,13,31,25.90
2014,08,11,13,32,25.90
2014,08,11,13,33,25.90
2014,08,11,13,34,25.90
2014,08,11,13,35,25.90
2014,08,11,13,36,25.90
2014,08,11,13,37,25.80
2014,08,11,13,38,25.80
2014,08,11,13,39,25.80
2014,08,11,13,40,25.90
2014,08,11,13,41,25.90
2014,08,11,13,42,25.90
2014,08,11,13,43,25.90
2014,08,11,13,44,25.90
2014,08,11,13,45,25.90
2014,08,11,13,46,25.90
2014,08,11,13,47,25.90
2014,08,11,13,48,25.90
2014,08,11,13,49,26.00
2014,08,11,13,50,26.10
2014,08,11,13,51,26.20
2014,08,11,13,52,26.30
2014,08,11,13,53,26.40
2014,08,11,13,54,26.50
2014,08,11,13,55,26.50
2014,08,11,13,56,26.60
2014,08,11,13,57,26.60
2014,08,11,13,58,26.60
2014,08,11,13,59,26.60
2014,08,11,14,00,26.60
2014,08,11,14,01,26.60
2014,08,11,14,02,26.70
2014,08,11,14,03,26.60
2014,08,11,14,04,26.60
2014,08,11,14,05,26.50
2014,08,11,14,06,26.40
2014,08,11,14,07,26.30
2014,08,11,14,08,26.30
2014,08,11,14,09,26.30
2014,08,11,14,10,26.30
2014,08,11,14,11,26.30
2014,08,11,14,12,26.30
2014,08,11,14,13,26.30
2014,08,11,14,14,26.40
2014,08,11,14,15,26.50
2014,08,11,14,16,26.60
2014,08,11,14,17,26.70
2014,08,11,14,18,26.80
2014,08,11,14,19,26.90
2014,08,11,14,20,27.00
2014,08,11,14,21,27.20
2014,08,11,14,22,27.30
2014,08,11,14,23,27.40
2014,08,11,14,24,27.40
2014,08,11,14,25,27.50
2014,08,11,14,26,27.60
2014,08,11,14,27,27.70
2014,08,11,14,28,27.80
2014,08,11,14,29,27.90
2014,08,11,14,30,27.90
2014,08,11,14,31,27.80
2014,08,11,14,32,27.80
2014,08,11,14,33,27.70
2014,08,11,14,34,27.60
2014,08,11,14,35,27.70
2014,08,11,14,36,27.70
2014,08,11,14,37,27.80
2014,08,11,14,38,27.90
2014,08,11,14,39,27.90
2014,08,11,14,40,28.00
2014,08,11,14,41,28.00
2014,08,11,14,42,27.90
2014,08,11,14,43,27.80
2014,08,11,14,44,27.80
2014,08,11,14,45,27.80
2014,08,11,14,46,27.80
2014,08,11,14,47,27.90
2014,08,11,14,48,27.90
2014,08,11,14,49,28.00
2014,08,11,14,50,28.00
2014,08,11,14,51,28.00
2014,08,11,14,52,28.00
2014,08,11,14,53,28.00
2014,08,11,14,54,27.90
2014,08,11,14,55,27.90
2014,08,11,14,56,27.90
2014,08,11,14,57,27.90
2014,08,11,14,58,27.90
2014,08,11,14,59,27.90
2014,08,11,15,00,28.00
2014,08,11,15,01,28.00
2014,08,11,15,02,28.10
2014,08,11,15,03,28.10
2014,08,11,15,04,28.20
2014,08,11,15,05,28.30
2014,08,11,15,06,28.30
2014,08,11,15,07,28.40
2014,08,11,15,08,28.40
2014,08,11,15,09,28.40
2014,08,11,15,10,28.40
2014,08,11,15,11,28.50
2014,08,11,15,12,28.50
2014,08,11,15,13,28.50
2014,08,11,15,14,28.50
2014,08,11,15,15,28.50
2014,08,11,15,16,28.40
2014,08,11,15,17,28.40
2014,08,11,15,18,28.30
2014,08,11,15,19,28.10
2014,08,11,15,20,28.00
2014,08,11,15,21,27.90
2014,08,11,15,22,27.80
2014,08,11,15,23,27.70
2014,08,11,15,24,27.70
2014,08,11,15,25,27.60
2014,08,11,15,26,27.50
2014,08,11,15,27,27.40
2014,08,11,15,28,27.40
2014,08,11,15,29,27.40
2014,08,11,15,30,27.30
2014,08,11,15,31,27.30
2014,08,11,15,32,27.30
2014,08,11,15,33,27.30
2014,08,11,15,34,27.30
2014,08,11,15,35,27.20
2014,08,11,15,36,27.20
2014,08,11,15,37,27.10
2014,08,11,15,38,27.00
2014,08,11,15,39,26.90
2014,08,11,15,40,26.80
2014,08,11,15,41,26.70
2014,08,11,15,42,26.70
2014,08,11,15,43,26.70
2014,08,11,15,44,26.60
2014,08,11,15,45,26.60
2014,08,11,15,46,26.60
2014,08,11,15,47,26.50
2014,08,11,15,48,26.50
2014,08,11,15,49,26.50
2014,08,11,15,50,26.40
2014,08,11,15,51,26.40
2014,08,11,15,52,26.40
2014,08,11,15,53,26.40
2014,08,11,15,54,26.50
2014,08,11,15,55,26.50
2014,08,11,15,56,26.50
2014,08,11,15,57,26.50
2014,08,11,15,58,26.50
2014,08,11,15,59,26.60
2014,08,11,16,00,26.60
2014,08,11,16,01,26.70
2014,08,11,16,02,26.80
2014,08,11,16,03,26.80
2014,08,11,16,04,26.90
2014,08,11,16,05,27.00
2014,08,11,16,06,27.10
2014,08,11,16,07,27.20
2014,08,11,16,08,27.30
2014,08,11,16,09,27.40
2014,08,11,16,10,27.50
2014,08,11,16,11,27.60
2014,08,11,16,12,27.70
2014,08,11,16,13,27.70
2014,08,11,16,14,27.80
2014,08,11,16,15,27.90
2014,08,11,16,16,28.00
2014,08,11,16,17,28.10
2014,08,11,16,18,28.10
2014,08,11,16,19,28.20
2014,08,11,16,20,28.20
2014,08,11,16,21,28.20
2014,08,11,16,22,28.20
2014,08,11,16,23,28.20
2014,08,11,16,24,28.20
2014,08,11,16,25,28.20
2014,08,11,16,26,28.20
2014,08,11,16,27,28.20
2014,08,11,16,28,28.00
2014,08,11,16,29,27.90
2014,08,11,16,30,27.90
2014,08,11,16,31,27.80
2014,08,11,16,32,27.80
2014,08,11,16,33,27.80
2014,08,11,16,34,27.80
2014,08,11,16,35,27.80
2014,08,11,16,36,27.80
2014,08,11,16,37,27.80
2014,08,11,16,38,27.70
2014,08,11,16,39,27.70
2014,08,11,16,40,27.70
2014,08,11,16,41,27.70
2014,08,11,16,42,27.60
2014,08,11,16,43,27.60
2014,08,11,16,44,27.60
2014,08,11,16,45,27.60
2014,08,11,16,46,27.60
2014,08,11,16,47,27.60
2014,08,11,16,48,27.60
2014,08,11,16,49,27.60
2014,08,11,16,50,27.60
2014,08,11,16,51,27.60
2014,08,11,16,52,27.60
2014,08,11,16,53,27.60
2014,08,11,16,54,27.60
2014,08,11,16,55,27.60
2014,08,11,16,56,27.60
2014,08,11,16,57,27.60
2014,08,11,16,58,27.60
2014,08,11,16,59,27.60
2014,08,11,17,00,27.60
2014,08,11,17,01,27.50
2014,08,11,17,02,27.50
2014,08,11,17,03,27.50
2014,08,11,17,04,27.40
2014,08,11,17,05,27.40
2014,08,11,17,06,27.40
2014,08,11,17,07,27.40
2014,08,11,17,08,27.40
2014,08,11,17,09,27.40
2014,08,11,17,10,27.40
2014,08,11,17,11,27.40
2014,08,11,17,12,27.40
2014,08,11,17,13,27.40
2014,08,11,17,14,27.40
2014,08,11,17,15,27.40
2014,08,11,17,16,27.40
2014,08,11,17,17,27.40
2014,08,11,17,18,27.40
2014,08,11,17,19,27.40